| time (UTC) | temp F | wind direction | speed knots | gust knots | rain 1hr in | rain 24hr in | rain mn in | humidity % | barometer mb |
| 20260902060415 | 70 | 178 | 0.0 | 0.0 | 0.00 | 0.00 | 0.00 | 78 | 1013.6 |
| 20260902055911 | 70 | 169 | 0.0 | 0.0 | 0.00 | 0.00 | 0.00 | 77 | 1013.4 |
| 20260902055407 | 70 | 169 | 0.0 | 0.0 | 0.00 | 0.00 | 0.00 | 78 | 1013.2 |
| 20260902054902 | 70 | 168 | 0.0 | 0.0 | 0.00 | 0.00 | 0.00 | 78 | 1012.8 |
| 20260902054357 | 70 | 160 | 0.0 | 0.0 | 0.00 | 0.00 | 0.00 | 78 | 1012.6 |
| 20260902053854 | 70 | 159 | 0.0 | 0.0 | 0.00 | 0.00 | 0.00 | 78 | 1013.1 |
| 20260902053354 | 70 | 156 | 0.0 | 0.0 | 0.00 | 0.00 | 0.00 | 78 | 1013.4 |
| 20260902052853 | 70 | 163 | 0.0 | 0.0 | 0.00 | 0.00 | 0.00 | 77 | 1013.7 |
| 20260902052348 | 71 | 163 | 0.0 | 0.0 | 0.00 | 0.00 | 0.00 | 77 | 1013.6 |
| 20260902051843 | 71 | 160 | 0.0 | 0.0 | 0.00 | 0.00 | 0.00 | 77 | 1013.8 |
| 20260902051344 | 71 | 173 | 0.0 | 0.0 | 0.00 | 0.00 | 0.00 | 77 | 1014.1 |
| 20260902050843 | 71 | 173 | 0.0 | 0.0 | 0.00 | 0.00 | 0.00 | 78 | 1014.2 |
| 20260902050343 | 71 | 173 | 0.0 | 0.0 | 0.00 | 0.00 | 0.00 | 77 | 1014.1 |
| 20260902045838 | 71 | 173 | 0.0 | 0.0 | 0.00 | 0.00 | 0.00 | 77 | 1013.9 |
| 20260902045334 | 71 | 171 | 0.0 | 0.0 | 0.00 | 0.00 | 0.00 | 77 | 1013.7 |
| 20260902044830 | 70 | 167 | 0.0 | 0.0 | 0.00 | 0.00 | 0.00 | 77 | 1013.3 |
| 20260902044325 | 70 | 174 | 0.0 | 0.0 | 0.00 | 0.00 | 0.00 | 79 | 1013.6 |
| 20260902043826 | 70 | 169 | 0.0 | 0.0 | 0.00 | 0.00 | 0.00 | 78 | 1013.6 |
| 20260902043321 | 70 | 169 | 0.0 | 0.0 | 0.00 | 0.00 | 0.00 | 78 | 1013.5 |
| 20260902042820 | 70 | 169 | 0.0 | 0.0 | 0.00 | 0.00 | 0.00 | 78 | 1013.5 |
| 20260902042315 | 71 | 169 | 0.0 | 0.0 | 0.00 | 0.00 | 0.00 | 78 | 1013.4 |
| 20260902041810 | 71 | 166 | 0.0 | 0.0 | 0.00 | 0.00 | 0.00 | 77 | 1012.8 |
| 20260902041310 | 71 | 166 | 0.0 | 0.0 | 0.00 | 0.00 | 0.00 | 77 | 1012.9 |
| 20260902040809 | 71 | 166 | 0.0 | 0.0 | 0.00 | 0.00 | 0.00 | 76 | 1013.1 |
| 20260902040305 | 71 | 168 | 0.0 | 0.0 | 0.00 | 0.00 | 0.00 | 76 | 1013.2 |
| 20260902035803 | 71 | 176 | 0.0 | 0.0 | 0.00 | 0.00 | 0.00 | 76 | 1013.2 |
| 20260902035259 | 71 | 181 | 0.0 | 0.0 | 0.00 | 0.00 | 0.00 | 75 | 1013.1 |
| 20260902034757 | 71 | 166 | 0.0 | 0.0 | 0.00 | 0.00 | 0.00 | 76 | 1013.2 |
| 20260902034253 | 71 | 166 | 0.0 | 0.0 | 0.00 | 0.00 | 0.00 | 75 | 1013.4 |
| 20260902033751 | 71 | 169 | 0.0 | 0.0 | 0.00 | 0.00 | 0.00 | 75 | 1013.6 |
| 20260902033246 | 71 | 168 | 0.0 | 0.0 | 0.00 | 0.00 | 0.00 | 74 | 1013.6 |
| 20260902032744 | 71 | 168 | 0.0 | 0.0 | 0.00 | 0.00 | 0.00 | 74 | 1013.4 |
| 20260902032240 | 71 | 168 | 0.0 | 0.0 | 0.00 | 0.00 | 0.00 | 74 | 1013.8 |
| 20260902031740 | 71 | 168 | 0.0 | 0.0 | 0.00 | 0.00 | 0.00 | 74 | 1014.0 |
| 20260902031235 | 71 | 168 | 0.0 | 0.0 | 0.00 | 0.00 | 0.00 | 74 | 1013.8 |
| 20260902030731 | 71 | 168 | 0.0 | 0.0 | 0.00 | 0.00 | 0.00 | 74 | 1014.0 |
| 20260902030225 | 71 | 168 | 0.0 | 0.0 | 0.00 | 0.00 | 0.00 | 74 | 1013.9 |
| 20260902025725 | 72 | 168 | 0.0 | 0.0 | 0.00 | 0.00 | 0.00 | 74 | 1013.7 |
| 20260902025220 | 72 | 168 | 0.0 | 0.0 | 0.00 | 0.00 | 0.00 | 72 | 1013.6 |
| 20260902024715 | 72 | 168 | 0.0 | 0.0 | 0.00 | 0.00 | 0.00 | 72 | 1013.7 |
| 20260902024210 | 73 | 168 | 0.0 | 0.0 | 0.00 | 0.00 | 0.00 | 72 | 1013.5 |
| 20260902023706 | 73 | 168 | 0.0 | 0.0 | 0.00 | 0.00 | 0.00 | 71 | 1013.6 |
| 20260902023201 | 73 | 168 | 0.0 | 0.0 | 0.00 | 0.00 | 0.00 | 70 | 1013.6 |
| 20260902022700 | 73 | 168 | 0.0 | 0.0 | 0.00 | 0.00 | 0.00 | 70 | 1013.5 |
| 20260902022156 | 73 | 168 | 0.0 | 0.0 | 0.00 | 0.00 | 0.00 | 69 | 1013.5 |
| 20260902021651 | 74 | 168 | 0.0 | 0.0 | 0.00 | 0.00 | 0.00 | 69 | 1013.5 |
| 20260902021146 | 74 | 169 | 0.0 | 0.0 | 0.00 | 0.00 | 0.00 | 68 | 1013.8 |
| 20260902020643 | 74 | 169 | 0.0 | 0.0 | 0.00 | 0.00 | 0.00 | 68 | 1013.6 |
| 20260902020138 | 74 | 168 | 0.0 | 0.0 | 0.00 | 0.00 | 0.00 | 67 | 1013.4 |
| 20260902015633 | 74 | 169 | 0.0 | 0.0 | 0.00 | 0.00 | 0.00 | 67 | 1013.6 |
| 20260902015130 | 74 | 169 | 0.0 | 0.0 | 0.00 | 0.00 | 0.00 | 66 | 1013.6 |
| 20260902014625 | 75 | 169 | 0.0 | 0.0 | 0.00 | 0.00 | 0.00 | 67 | 1013.3 |
| 20260902014121 | 75 | 169 | 0.0 | 0.0 | 0.00 | 0.00 | 0.00 | 66 | 1013.3 |
| 20260902013620 | 75 | 169 | 0.0 | 0.0 | 0.00 | 0.00 | 0.00 | 65 | 1013.3 |
| 20260902013116 | 76 | 169 | 0.0 | 0.0 | 0.00 | 0.00 | 0.00 | 64 | 1013.6 |
| 20260902012611 | 76 | 169 | 0.0 | 0.0 | 0.00 | 0.00 | 0.00 | 63 | 1013.3 |
| 20260902012106 | 77 | 169 | 0.0 | 0.0 | 0.00 | 0.00 | 0.00 | 62 | 1013.1 |
| 20260902011602 | 77 | 169 | 0.0 | 0.0 | 0.00 | 0.00 | 0.00 | 62 | 1013.4 |
| 20260902011101 | 77 | 169 | 0.0 | 0.0 | 0.00 | 0.00 | 0.00 | 62 | 1013.1 |
| 20260902010600 | 78 | 167 | 0.0 | 0.0 | 0.00 | 0.00 | 0.00 | 61 | 1013.2 |
| 20260902010056 | 78 | 167 | 0.0 | 0.0 | 0.00 | 0.00 | 0.00 | 61 | 1012.9 |
| 20260902005553 | 78 | 167 | 0.0 | 0.0 | 0.00 | 0.00 | 0.00 | 60 | 1013.1 |
| 20260902005050 | 78 | 163 | 0.0 | 0.0 | 0.00 | 0.00 | 0.00 | 60 | 1012.9 |
| 20260902004549 | 79 | 166 | 0.0 | 0.0 | 0.00 | 0.00 | 0.00 | 59 | 1012.9 |
| 20260902004045 | 79 | 166 | 0.0 | 0.0 | 0.00 | 0.00 | 0.00 | 59 | 1012.9 |
| 20260902003540 | 80 | 170 | 0.0 | 0.0 | 0.00 | 0.00 | 0.00 | 58 | 1013.1 |
| 20260902003035 | 80 | 171 | 0.0 | 0.0 | 0.00 | 0.00 | 0.00 | 58 | 1013.2 |
| 20260902002531 | 81 | 171 | 0.0 | 0.0 | 0.00 | 0.00 | 0.00 | 56 | 1013.1 |
| 20260902002026 | 81 | 167 | 0.0 | 0.0 | 0.00 | 0.00 | 0.00 | 56 | 1013.2 |
| 20260902001520 | 81 | 166 | 0.0 | 0.0 | 0.00 | 0.00 | 0.00 | 56 | 1013.1 |
| 20260902001016 | 82 | 210 | 0.0 | 0.0 | 0.00 | 0.00 | 0.00 | 55 | 1013.4 |
| 20260902000511 | 82 | 175 | 0.0 | 0.0 | 0.00 | 0.00 | 0.00 | 55 | 1013.5 |
| 20260902000005 | 82 | 202 | 0.0 | 1.7 | 0.00 | 0.00 | 0.00 | 56 | 1013.3 |
| 20260901235500 | 82 | 172 | 0.0 | 0.0 | 0.00 | 0.00 | 0.00 | 55 | 1013.3 |
| 20260901234955 | 82 | 157 | 1.7 | 2.6 | 0.00 | 0.00 | 0.00 | 56 | 1013.4 |
| 20260901234449 | 82 | 163 | 0.0 | 0.0 | 0.00 | 0.00 | 0.00 | 56 | 1013.5 |
| 20260901233944 | 82 | 168 | 0.0 | 0.0 | 0.00 | 0.00 | 0.00 | 57 | 1013.4 |
| 20260901233439 | 83 | 157 | 0.0 | 1.7 | 0.00 | 0.00 | 0.00 | 57 | 1013.4 |
| 20260901232936 | 83 | 166 | 0.0 | 0.0 | 0.00 | 0.00 | 0.00 | 58 | 1013.4 |
| 20260901232435 | 83 | 252 | 1.7 | 1.7 | 0.00 | 0.00 | 0.00 | 58 | 1013.3 |
| 20260901231931 | 83 | 202 | 0.0 | 0.0 | 0.00 | 0.00 | 0.00 | 57 | 1013.4 |
| 20260901231427 | 83 | 169 | 0.0 | 0.0 | 0.00 | 0.00 | 0.00 | 57 | 1013.5 |
| 20260901230924 | 84 | 167 | 0.0 | 0.0 | 0.00 | 0.00 | 0.00 | 55 | 1013.6 |
| 20260901230423 | 84 | 170 | 0.0 | 0.0 | 0.00 | 0.00 | 0.00 | 54 | 1013.3 |
| 20260901225919 | 83 | 172 | 0.0 | 0.0 | 0.00 | 0.00 | 0.00 | 55 | 1013.5 |
| 20260901225418 | 83 | 151 | 0.0 | 0.0 | 0.00 | 0.00 | 0.00 | 54 | 1013.6 |
| 20260901224913 | 84 | 169 | 0.0 | 0.0 | 0.00 | 0.00 | 0.00 | 55 | 1013.2 |
| 20260901224410 | 84 | 162 | 0.0 | 0.0 | 0.00 | 0.00 | 0.00 | 52 | 1012.9 |
| 20260901223906 | 84 | 156 | 1.7 | 2.6 | 0.00 | 0.00 | 0.00 | 51 | 1013.4 |
| 20260901223400 | 85 | 175 | 0.0 | 0.0 | 0.00 | 0.00 | 0.00 | 53 | 1013.4 |
| 20260901222856 | 85 | 171 | 0.0 | 1.7 | 0.00 | 0.00 | 0.00 | 51 | 1013.4 |
| 20260901222353 | 86 | 174 | 0.0 | 1.7 | 0.00 | 0.00 | 0.00 | 51 | 1013.4 |
| 20260901221848 | 86 | 101 | 0.9 | 1.7 | 0.00 | 0.00 | 0.00 | 52 | 1013.3 |
| 20260901221344 | 86 | 177 | 0.0 | 1.7 | 0.00 | 0.00 | 0.00 | 52 | 1013.4 |
| 20260901220843 | 86 | 179 | 0.0 | 0.0 | 0.00 | 0.00 | 0.00 | 51 | 1013.3 |
| 20260901220342 | 85 | 164 | 0.0 | 0.0 | 0.00 | 0.00 | 0.00 | 50 | 1013.3 |
| 20260901215841 | 85 | 339 | 0.0 | 1.7 | 0.00 | 0.00 | 0.00 | 50 | 1013.4 |
| 20260901215340 | 85 | 152 | 0.0 | 1.7 | 0.00 | 0.00 | 0.00 | 51 | 1013.3 |
| 20260901214839 | 86 | 185 | 0.0 | 0.0 | 0.00 | 0.00 | 0.00 | 50 | 1013.2 |
| 20260901214338 | 86 | 177 | 0.0 | 1.7 | 0.00 | 0.00 | 0.00 | 49 | 1013.2 |
| 20260901213833 | 87 | 167 | 0.0 | 0.0 | 0.00 | 0.00 | 0.00 | 49 | 1013.2 |
| 20260901213333 | 87 | 124 | 1.7 | 1.7 | 0.00 | 0.00 | 0.00 | 45 | 1013.4 |
| 20260901212827 | 87 | 191 | 0.0 | 0.0 | 0.00 | 0.00 | 0.00 | 46 | 1013.2 |
| 20260901212323 | 87 | 172 | 0.0 | 0.0 | 0.00 | 0.00 | 0.00 | 46 | 1013.4 |
| 20260901211819 | 86 | 194 | 0.9 | 1.7 | 0.00 | 0.00 | 0.00 | 47 | 1013.2 |
| 20260901211315 | 86 | 169 | 0.0 | 0.0 | 0.00 | 0.00 | 0.00 | 48 | 1013.2 |
| 20260901210810 | 86 | 167 | 0.0 | 0.0 | 0.00 | 0.00 | 0.00 | 46 | 1013.1 |
| 20260901210306 | 86 | 171 | 0.0 | 0.0 | 0.00 | 0.00 | 0.00 | 44 | 1012.9 |
| 20260901205802 | 87 | 171 | 0.0 | 0.0 | 0.00 | 0.00 | 0.00 | 42 | 1012.9 |
| 20260901205306 | 87 | 318 | 0.0 | 1.7 | 0.00 | 0.00 | 0.00 | 45 | 1012.8 |
| 20260901204757 | 88 | 175 | 0.0 | 0.0 | 0.00 | 0.00 | 0.00 | 44 | 1013.2 |
| 20260901204253 | 88 | 171 | 0.0 | 0.0 | 0.00 | 0.00 | 0.00 | 45 | 1013.2 |
| 20260901203754 | 89 | 172 | 0.9 | 1.7 | 0.00 | 0.00 | 0.00 | 41 | 1013.4 |
| 20260901203248 | 90 | 176 | 0.9 | 1.7 | 0.00 | 0.00 | 0.00 | 38 | 1013.6 |
| 20260901202747 | 91 | 172 | 0.0 | 0.0 | 0.00 | 0.00 | 0.00 | 39 | 1013.6 |
| 20260901202243 | 93 | 169 | 0.0 | 0.0 | 0.00 | 0.00 | 0.00 | 39 | 1013.6 |
| 20260901201739 | 93 | 176 | 0.0 | 0.0 | 0.00 | 0.00 | 0.00 | 40 | 1013.7 |
| 20260901201232 | 92 | 218 | 0.0 | 1.7 | 0.00 | 0.00 | 0.00 | 40 | 1013.6 |
| 20260901200732 | 90 | 172 | 0.0 | 1.7 | 0.00 | 0.00 | 0.00 | 44 | 1013.6 |
| 20260901200227 | 89 | 205 | 0.9 | 1.7 | 0.00 | 0.00 | 0.00 | 43 | 1013.4 |
| 20260901195725 | 89 | 161 | 1.7 | 1.7 | 0.00 | 0.00 | 0.00 | 43 | 1013.7 |
| 20260901195219 | 88 | 184 | 0.0 | 1.7 | 0.00 | 0.00 | 0.00 | 44 | 1013.6 |
| 20260901194715 | 88 | 120 | 0.0 | 1.7 | 0.00 | 0.00 | 0.00 | 44 | 1013.9 |
| 20260901194210 | 88 | 168 | 0.0 | 0.0 | 0.00 | 0.00 | 0.00 | 43 | 1013.8 |
| 20260901193707 | 89 | 172 | 0.0 | 1.7 | 0.00 | 0.00 | 0.00 | 40 | 1013.6 |
| 20260901193201 | 89 | 172 | 0.0 | 0.0 | 0.00 | 0.00 | 0.00 | 42 | 1013.8 |
| 20260901192700 | 89 | 163 | 0.0 | 0.0 | 0.00 | 0.00 | 0.00 | 44 | 1013.7 |
| 20260901192155 | 90 | 177 | 0.0 | 0.0 | 0.00 | 0.00 | 0.00 | 41 | 1013.7 |
| 20260901191651 | 89 | 156 | 0.0 | 0.0 | 0.00 | 0.00 | 0.00 | 43 | 1013.9 |
| 20260901191142 | 89 | 194 | 2.6 | 2.6 | 0.00 | 0.00 | 0.00 | 38 | 1013.8 |
| 20260901190638 | 89 | 166 | 0.0 | 0.0 | 0.00 | 0.00 | 0.00 | 41 | 1013.8 |
| 20260901190137 | 89 | 168 | 0.0 | 0.0 | 0.00 | 0.00 | 0.00 | 43 | 1013.8 |
| 20260901185636 | 90 | 179 | 0.0 | 0.0 | 0.00 | 0.00 | 0.00 | 39 | 1013.8 |
| 20260901185134 | 91 | 160 | 0.0 | 1.7 | 0.00 | 0.00 | 0.00 | 38 | 1013.9 |
| 20260901184630 | 91 | 179 | 1.7 | 1.7 | 0.00 | 0.00 | 0.00 | 39 | 1013.7 |
| 20260901184125 | 91 | 174 | 1.7 | 1.7 | 0.00 | 0.00 | 0.00 | 40 | 1013.7 |
| 20260901183620 | 90 | 195 | 0.9 | 1.7 | 0.00 | 0.00 | 0.00 | 41 | 1014.0 |
| 20260901183115 | 91 | 84 | 1.7 | 2.6 | 0.00 | 0.00 | 0.00 | 40 | 1014.1 |
| 20260901182612 | 89 | 194 | 0.9 | 1.7 | 0.00 | 0.00 | 0.00 | 42 | 1014.0 |
| 20260901182111 | 89 | 170 | 1.7 | 1.7 | 0.00 | 0.00 | 0.00 | 42 | 1014.1 |
| 20260901181610 | 89 | 217 | 0.0 | 0.0 | 0.00 | 0.00 | 0.00 | 43 | 1014.1 |
| 20260901181109 | 88 | 157 | 0.9 | 1.7 | 0.00 | 0.00 | 0.00 | 44 | 1014.3 |
| 20260901180604 | 88 | 189 | 0.0 | 1.7 | 0.00 | 0.00 | 0.00 | 46 | 1014.2 |
| 20260901180058 | 88 | 181 | 0.9 | 1.7 | 0.00 | 0.00 | 0.00 | 45 | 1014.4 |
| 20260901175551 | 88 | 188 | 0.0 | 1.7 | 0.00 | 0.00 | 0.00 | 47 | 1014.6 |
| 20260901175046 | 88 | 6 | 2.6 | 2.6 | 0.00 | 0.00 | 0.00 | 45 | 1014.7 |
| 20260901174542 | 87 | 171 | 0.9 | 1.7 | 0.00 | 0.00 | 0.00 | 47 | 1014.6 |
| 20260901174038 | 88 | 185 | 0.0 | 0.0 | 0.00 | 0.00 | 0.00 | 45 | 1014.6 |
| 20260901173532 | 87 | 172 | 0.0 | 0.0 | 0.00 | 0.00 | 0.00 | 46 | 1014.7 |
| 20260901173028 | 87 | 190 | 1.7 | 1.7 | 0.00 | 0.00 | 0.00 | 46 | 1014.8 |
| 20260901172524 | 88 | 358 | 4.3 | 4.3 | 0.00 | 0.00 | 0.00 | 43 | 1014.7 |
| 20260901172022 | 89 | 180 | 0.9 | 1.7 | 0.00 | 0.00 | 0.00 | 43 | 1014.7 |
| 20260901171521 | 89 | 117 | 1.7 | 1.7 | 0.00 | 0.00 | 0.00 | 45 | 1014.8 |
| 20260901171020 | 88 | 269 | 0.9 | 1.7 | 0.00 | 0.00 | 0.00 | 45 | 1014.8 |
| 20260901170515 | 87 | 168 | 0.0 | 0.0 | 0.00 | 0.00 | 0.00 | 47 | 1014.9 |
| 20260901170015 | 86 | 145 | 0.0 | 1.7 | 0.00 | 0.00 | 0.00 | 46 | 1014.9 |
| 20260901165509 | 87 | 139 | 0.9 | 1.7 | 0.00 | 0.00 | 0.00 | 46 | 1014.9 |
| 20260901165005 | 88 | 117 | 2.6 | 2.6 | 0.00 | 0.00 | 0.00 | 45 | 1014.9 |
| 20260901164500 | 87 | 173 | 0.0 | 0.0 | 0.00 | 0.00 | 0.00 | 47 | 1015.0 |
| 20260901164000 | 88 | 17 | 2.6 | 2.6 | 0.00 | 0.00 | 0.00 | 43 | 1014.9 |
| 20260901163455 | 87 | 198 | 1.7 | 2.6 | 0.00 | 0.00 | 0.00 | 46 | 1015.0 |
| 20260901162954 | 87 | 162 | 0.0 | 1.7 | 0.00 | 0.00 | 0.00 | 46 | 1014.9 |
| 20260901162449 | 87 | 91 | 1.7 | 1.7 | 0.00 | 0.00 | 0.00 | 46 | 1014.9 |
| 20260901161949 | 87 | 309 | 2.6 | 4.3 | 0.00 | 0.00 | 0.00 | 46 | 1014.9 |
| 20260901161448 | 86 | 160 | 0.0 | 1.7 | 0.00 | 0.00 | 0.00 | 51 | 1014.7 |
| 20260901160943 | 85 | 144 | 1.7 | 2.6 | 0.00 | 0.00 | 0.00 | 50 | 1014.9 |
| 20260901160439 | 85 | 193 | 1.7 | 1.7 | 0.00 | 0.00 | 0.00 | 50 | 1014.7 |
| 20260901155938 | 84 | 186 | 0.9 | 1.7 | 0.00 | 0.00 | 0.00 | 52 | 1014.5 |
| 20260901155432 | 83 | 182 | 1.7 | 1.7 | 0.00 | 0.00 | 0.00 | 57 | 1014.8 |
| 20260901154929 | 83 | 189 | 0.0 | 1.7 | 0.00 | 0.00 | 0.00 | 54 | 1014.8 |
| 20260901154428 | 83 | 206 | 0.0 | 1.7 | 0.00 | 0.00 | 0.00 | 61 | 1014.9 |
| 20260901153923 | 82 | 151 | 0.0 | 0.0 | 0.00 | 0.00 | 0.00 | 58 | 1014.6 |
| 20260901153418 | 82 | 128 | 0.9 | 1.7 | 0.00 | 0.00 | 0.00 | 59 | 1014.7 |
| 20260901152918 | 81 | 24 | 2.6 | 2.6 | 0.00 | 0.00 | 0.00 | 59 | 1014.7 |
| 20260901152412 | 81 | 152 | 1.7 | 1.7 | 0.00 | 0.00 | 0.00 | 61 | 1014.9 |
| 20260901151907 | 82 | 154 | 0.0 | 0.0 | 0.00 | 0.00 | 0.00 | 59 | 1014.9 |
| 20260901151406 | 81 | 151 | 0.0 | 1.7 | 0.00 | 0.00 | 0.00 | 61 | 1014.8 |
| 20260901150906 | 80 | 176 | 0.0 | 0.0 | 0.00 | 0.00 | 0.00 | 63 | 1014.8 |
| 20260901150404 | 80 | 147 | 0.0 | 0.0 | 0.00 | 0.00 | 0.00 | 64 | 1014.9 |
| 20260901145901 | 79 | 162 | 0.0 | 0.0 | 0.00 | 0.00 | 0.00 | 65 | 1015.2 |
| 20260901145356 | 78 | 166 | 0.0 | 0.0 | 0.00 | 0.00 | 0.00 | 66 | 1015.1 |
| 20260901144851 | 78 | 130 | 0.9 | 1.7 | 0.00 | 0.00 | 0.00 | 67 | 1015.1 |
| 20260901144347 | 77 | 161 | 2.6 | 2.6 | 0.00 | 0.00 | 0.00 | 69 | 1015.1 |
| 20260901143842 | 75 | 170 | 0.9 | 1.7 | 0.00 | 0.00 | 0.00 | 73 | 1015.1 |
| 20260901143338 | 75 | 169 | 0.9 | 1.7 | 0.00 | 0.00 | 0.00 | 73 | 1015.3 |
| 20260901142835 | 74 | 180 | 0.0 | 0.0 | 0.00 | 0.00 | 0.00 | 75 | 1015.2 |
| 20260901142333 | 74 | 160 | 0.0 | 0.0 | 0.00 | 0.00 | 0.00 | 77 | 1015.3 |
| 20260901141834 | 73 | 155 | 0.0 | 1.7 | 0.00 | 0.00 | 0.00 | 78 | 1015.4 |
| 20260901141329 | 72 | 156 | 1.7 | 2.6 | 0.00 | 0.00 | 0.00 | 80 | 1015.2 |
| 20260901140828 | 72 | 359 | 0.0 | 0.0 | 0.00 | 0.00 | 0.00 | 82 | 1015.2 |
| 20260901140326 | 71 | 170 | 0.0 | 0.0 | 0.00 | 0.00 | 0.00 | 86 | 1015.2 |
| 20260901135821 | 70 | 167 | 0.0 | 1.7 | 0.00 | 0.00 | 0.00 | 88 | 1015.3 |
| 20260901135316 | 69 | 157 | 0.9 | 1.7 | 0.00 | 0.00 | 0.00 | 92 | 1015.3 |
| 20260901134813 | 68 | 197 | 0.0 | 1.7 | 0.00 | 0.00 | 0.00 | 94 | 1015.3 |
| 20260901134312 | 68 | 164 | 0.0 | 0.0 | 0.00 | 0.00 | 0.00 | 96 | 1015.2 |
| 20260901133807 | 68 | 169 | 0.0 | 0.0 | 0.00 | 0.00 | 0.00 | 96 | 1015.3 |
| 20260901133306 | 67 | 169 | 0.0 | 0.0 | 0.00 | 0.00 | 0.00 | 97 | 1015.3 |
| 20260901132804 | 67 | 167 | 0.0 | 0.0 | 0.00 | 0.00 | 0.00 | 98 | 1015.4 |
| 20260901132300 | 67 | 170 | 0.0 | 0.0 | 0.00 | 0.00 | 0.00 | 98 | 1015.3 |
| 20260901131754 | 67 | 168 | 0.0 | 0.0 | 0.00 | 0.00 | 0.00 | 98 | 1015.3 |
| 20260901131254 | 67 | 163 | 0.0 | 0.0 | 0.00 | 0.00 | 0.00 | 98 | 1015.1 |
| 20260901130749 | 66 | 158 | 0.0 | 0.0 | 0.00 | 0.00 | 0.00 | 98 | 1015.1 |
| 20260901130248 | 66 | 165 | 0.0 | 0.0 | 0.00 | 0.00 | 0.00 | 98 | 1014.9 |
| 20260901125746 | 65 | 165 | 0.0 | 0.0 | 0.00 | 0.00 | 0.00 | 98 | 1015.1 |
| 20260901125241 | 65 | 165 | 0.0 | 0.0 | 0.00 | 0.00 | 0.00 | 98 | 1015.0 |
| 20260901124742 | 65 | 165 | 0.0 | 0.0 | 0.00 | 0.00 | 0.00 | 98 | 1015.1 |
| 20260901124236 | 65 | 165 | 0.0 | 0.0 | 0.00 | 0.00 | 0.00 | 98 | 1015.0 |
| 20260901123736 | 64 | 165 | 0.0 | 0.0 | 0.00 | 0.00 | 0.00 | 98 | 1015.2 |
| 20260901123231 | 64 | 165 | 0.0 | 0.0 | 0.00 | 0.00 | 0.00 | 98 | 1015.3 |
| 20260901122730 | 64 | 164 | 0.0 | 0.0 | 0.00 | 0.00 | 0.00 | 98 | 1015.2 |
| 20260901122225 | 64 | 163 | 0.0 | 0.0 | 0.00 | 0.00 | 0.00 | 98 | 1015.1 |
| 20260901121719 | 64 | 163 | 0.0 | 0.0 | 0.00 | 0.00 | 0.00 | 98 | 1015.0 |
| 20260901121214 | 63 | 163 | 0.0 | 0.0 | 0.00 | 0.00 | 0.00 | 98 | 1014.9 |
| 20260901120714 | 63 | 163 | 0.0 | 0.0 | 0.00 | 0.00 | 0.00 | 98 | 1014.8 |
| 20260901120209 | 63 | 163 | 0.0 | 0.0 | 0.00 | 0.00 | 0.00 | 98 | 1014.8 |
| 20260901115704 | 63 | 161 | 0.0 | 0.0 | 0.00 | 0.00 | 0.00 | 98 | 1014.7 |
| 20260901115200 | 63 | 160 | 0.0 | 0.0 | 0.00 | 0.00 | 0.00 | 98 | 1014.8 |
| 20260901114657 | 63 | 163 | 0.0 | 0.0 | 0.00 | 0.00 | 0.00 | 98 | 1014.7 |
| 20260901114156 | 63 | 163 | 0.0 | 0.0 | 0.00 | 0.00 | 0.00 | 98 | 1014.6 |
| 20260901113650 | 63 | 163 | 0.0 | 0.0 | 0.00 | 0.00 | 0.00 | 98 | 1014.6 |
| 20260901113145 | 63 | 163 | 0.0 | 0.0 | 0.00 | 0.00 | 0.00 | 98 | 1014.3 |
| 20260901112644 | 63 | 161 | 0.0 | 0.0 | 0.00 | 0.00 | 0.00 | 98 | 1014.4 |
| 20260901112138 | 63 | 170 | 0.0 | 0.0 | 0.00 | 0.00 | 0.00 | 98 | 1014.3 |
| 20260901111638 | 63 | 170 | 0.0 | 0.0 | 0.00 | 0.00 | 0.00 | 98 | 1014.3 |
| 20260901111132 | 63 | 170 | 0.0 | 0.0 | 0.00 | 0.00 | 0.00 | 98 | 1014.2 |
| 20260901110627 | 63 | 169 | 0.0 | 0.0 | 0.00 | 0.00 | 0.00 | 98 | 1014.1 |
| 20260901110122 | 63 | 169 | 0.0 | 0.0 | 0.00 | 0.00 | 0.00 | 97 | 1014.0 |
| 20260901105619 | 63 | 169 | 0.0 | 0.0 | 0.00 | 0.00 | 0.00 | 97 | 1014.2 |
| 20260901105118 | 63 | 169 | 0.0 | 0.0 | 0.00 | 0.00 | 0.00 | 97 | 1014.0 |
| 20260901104614 | 63 | 169 | 0.0 | 0.0 | 0.00 | 0.00 | 0.00 | 97 | 1014.0 |
| 20260901104108 | 63 | 167 | 0.0 | 0.0 | 0.00 | 0.00 | 0.00 | 97 | 1013.8 |
| 20260901103603 | 63 | 167 | 0.0 | 0.0 | 0.00 | 0.00 | 0.00 | 97 | 1013.8 |
| 20260901103058 | 63 | 167 | 0.0 | 0.0 | 0.00 | 0.00 | 0.00 | 97 | 1013.8 |
| 20260901102553 | 63 | 167 | 0.0 | 0.0 | 0.00 | 0.00 | 0.00 | 97 | 1013.8 |
| 20260901102048 | 63 | 167 | 0.0 | 0.0 | 0.00 | 0.00 | 0.00 | 97 | 1013.8 |
| 20260901101544 | 63 | 167 | 0.0 | 0.0 | 0.00 | 0.00 | 0.00 | 97 | 1013.8 |
| 20260901101042 | 63 | 167 | 0.0 | 0.0 | 0.00 | 0.00 | 0.00 | 97 | 1013.8 |
| 20260901100537 | 63 | 167 | 0.0 | 0.0 | 0.00 | 0.00 | 0.00 | 97 | 1013.8 |
| 20260901100037 | 63 | 167 | 0.0 | 0.0 | 0.00 | 0.00 | 0.00 | 97 | 1013.8 |
| 20260901095535 | 63 | 167 | 0.0 | 0.0 | 0.00 | 0.00 | 0.00 | 97 | 1013.8 |
| 20260901095033 | 63 | 167 | 0.0 | 0.0 | 0.00 | 0.00 | 0.00 | 97 | 1013.8 |
| 20260901094528 | 63 | 167 | 0.0 | 0.0 | 0.00 | 0.00 | 0.00 | 97 | 1013.7 |
| 20260901094027 | 63 | 167 | 0.0 | 0.0 | 0.00 | 0.00 | 0.00 | 97 | 1013.9 |
| 20260901093522 | 63 | 167 | 0.0 | 0.0 | 0.00 | 0.00 | 0.00 | 97 | 1013.7 |
| 20260901093017 | 64 | 167 | 0.0 | 0.0 | 0.00 | 0.00 | 0.00 | 97 | 1013.8 |
| 20260901092513 | 63 | 167 | 0.0 | 0.0 | 0.00 | 0.00 | 0.00 | 97 | 1013.9 |
| 20260901092009 | 64 | 167 | 0.0 | 0.0 | 0.00 | 0.00 | 0.00 | 97 | 1013.7 |
| 20260901091504 | 64 | 168 | 0.0 | 0.0 | 0.00 | 0.00 | 0.00 | 97 | 1013.7 |
| 20260901091003 | 64 | 168 | 0.0 | 0.0 | 0.00 | 0.00 | 0.00 | 97 | 1013.7 |
| 20260901090458 | 64 | 168 | 0.0 | 0.0 | 0.00 | 0.00 | 0.00 | 97 | 1013.6 |
| 20260901085953 | 64 | 168 | 0.0 | 0.0 | 0.00 | 0.00 | 0.00 | 97 | 1013.7 |
| 20260901085449 | 64 | 168 | 0.0 | 0.0 | 0.00 | 0.00 | 0.00 | 97 | 1013.7 |
| 20260901084945 | 64 | 168 | 0.0 | 0.0 | 0.00 | 0.00 | 0.00 | 96 | 1013.9 |
| 20260901084441 | 64 | 168 | 0.0 | 0.0 | 0.00 | 0.00 | 0.00 | 96 | 1013.8 |
| 20260901083937 | 64 | 168 | 0.0 | 0.0 | 0.00 | 0.00 | 0.00 | 97 | 1013.7 |
| 20260901083437 | 64 | 168 | 0.0 | 0.0 | 0.00 | 0.00 | 0.00 | 96 | 1013.5 |
| 20260901082935 | 64 | 168 | 0.0 | 0.0 | 0.00 | 0.00 | 0.00 | 96 | 1013.6 |
| 20260901082430 | 64 | 168 | 0.0 | 0.0 | 0.00 | 0.00 | 0.00 | 96 | 1013.5 |
| 20260901081925 | 64 | 168 | 0.0 | 0.0 | 0.00 | 0.00 | 0.00 | 96 | 1013.6 |
| 20260901081420 | 64 | 168 | 0.0 | 0.0 | 0.00 | 0.00 | 0.00 | 96 | 1013.7 |
| 20260901080915 | 65 | 168 | 0.0 | 0.0 | 0.00 | 0.00 | 0.00 | 96 | 1013.6 |
| 20260901080409 | 64 | 168 | 0.0 | 0.0 | 0.00 | 0.00 | 0.00 | 96 | 1013.8 |
| 20260901075903 | 64 | 168 | 0.0 | 0.0 | 0.00 | 0.00 | 0.00 | 96 | 1013.7 |
| 20260901075359 | 64 | 168 | 0.0 | 0.0 | 0.00 | 0.00 | 0.00 | 96 | 1013.8 |
| 20260901074853 | 65 | 168 | 0.0 | 0.0 | 0.00 | 0.00 | 0.00 | 96 | 1013.8 |
| 20260901074354 | 65 | 168 | 0.0 | 0.0 | 0.00 | 0.00 | 0.00 | 96 | 1014.0 |
| 20260901073849 | 65 | 168 | 0.0 | 0.0 | 0.00 | 0.00 | 0.00 | 96 | 1013.8 |
| 20260901073345 | 65 | 168 | 0.0 | 0.0 | 0.00 | 0.00 | 0.00 | 95 | 1013.8 |
| 20260901072840 | 65 | 168 | 0.0 | 0.0 | 0.00 | 0.00 | 0.00 | 95 | 1013.8 |
| 20260901072340 | 65 | 168 | 0.0 | 0.0 | 0.00 | 0.00 | 0.00 | 95 | 1013.9 |
| 20260901071835 | 66 | 168 | 0.0 | 0.0 | 0.00 | 0.00 | 0.00 | 95 | 1014.0 |
| 20260901071334 | 66 | 168 | 0.0 | 0.0 | 0.00 | 0.00 | 0.00 | 95 | 1014.0 |
| 20260901070833 | 66 | 168 | 0.0 | 0.0 | 0.00 | 0.00 | 0.00 | 95 | 1014.2 |
| 20260901070329 | 66 | 168 | 0.0 | 0.0 | 0.00 | 0.00 | 0.00 | 95 | 1013.9 |
| 20260901065827 | 66 | 168 | 0.0 | 0.0 | 0.00 | 0.00 | 0.00 | 95 | 1014.0 |
| 20260901065323 | 66 | 168 | 0.0 | 0.0 | 0.00 | 0.00 | 0.00 | 95 | 1014.1 |
| 20260901064819 | 66 | 168 | 0.0 | 0.0 | 0.00 | 0.00 | 0.00 | 95 | 1014.3 |
| 20260901064314 | 66 | 165 | 0.0 | 0.0 | 0.00 | 0.00 | 0.00 | 95 | 1014.3 |
| 20260901063812 | 66 | 165 | 0.0 | 0.0 | 0.00 | 0.00 | 0.00 | 94 | 1014.5 |
| 20260901063308 | 66 | 165 | 0.0 | 0.0 | 0.00 | 0.00 | 0.00 | 94 | 1014.3 |
| 20260901062804 | 66 | 165 | 0.0 | 0.0 | 0.00 | 0.00 | 0.00 | 94 | 1014.4 |
| 20260901062259 | 66 | 165 | 0.0 | 0.0 | 0.00 | 0.00 | 0.00 | 94 | 1014.3 |
| 20260901061755 | 67 | 165 | 0.0 | 0.0 | 0.00 | 0.00 | 0.00 | 94 | 1014.2 |
| 20260901061255 | 67 | 165 | 0.0 | 0.0 | 0.00 | 0.00 | 0.00 | 93 | 1014.2 |